Location: Cactus School
(34.5700°N, 118.0931°W)
Time: 23:55:36
(UTC-07:00)

BEESAT - Visible Passes

Search period start: 20 May 2024 00:00
Search period end: 30 May 2024 00:00
Orbit: 692 x 702 km, 98.5° (Epoch: 20 May)

Date Brightness Start Highest point End Pass type
(mag) Time Alt. Az. Time Alt. Az. Time Alt. Az.
20 May ? 22:40:58 10° NNE 22:44:00 38° NE 22:44:00 38° NE visible
21 May ? 00:20:44 10° NW 00:22:41 12° WNW 00:22:47 12° WNW visible
21 May ? 21:46:25 10° ENE 21:46:53 11° ENE 21:46:53 11° ENE visible
21 May ? 23:22:08 10° N 23:25:40 41° NW 23:25:40 41° NW visible
22 May ? 22:25:47 10° NNE 22:28:33 29° NE 22:28:33 29° NE visible
23 May ? 00:04:17 10° NNW 00:07:19 18° WNW 00:07:19 18° WNW visible
23 May ? 23:06:36 10° N 23:10:12 51° N 23:10:12 51° N visible
24 May ? 22:10:45 10° NE 22:13:03 22° ENE 22:13:03 22° ENE visible
24 May ? 23:48:18 10° NNW 23:51:49 26° WNW 23:51:49 26° WNW visible
25 May ? 22:51:09 10° NNE 22:54:41 49° NNE 22:54:41 49° NNE visible
26 May ? 21:55:58 10° NE 21:57:32 15° ENE 21:57:32 15° ENE visible
26 May ? 23:32:30 10° N 23:36:18 36° NW 23:36:18 36° NW visible
27 May ? 22:35:50 10° NNE 22:39:09 39° NE 22:39:09 39° NE visible
28 May ? 00:15:01 10° NNW 00:17:34 15° WNW 00:17:55 14° WNW visible
28 May ? 21:41:51 10° ENE 21:41:59 10° ENE 21:41:59 10° ENE visible
28 May ? 23:16:49 10° N 23:20:45 50° NW 23:20:45 50° NW visible
29 May ? 22:20:38 10° NNE 22:23:35 28° ENE 22:23:35 28° ENE visible
